TimeHST,TemperatureF,Dew PointF,Humidity,Sea Level PressureIn,VisibilityMPH,Wind Direction,Wind SpeedMPH,Gust SpeedMPH,PrecipitationIn,Events,Conditions,WindDirDegrees,DateUTC
12:56 AM,51.8,46.9,83,30.35,12.0,NNE,1.2,-,N/A,,Clear,30,2013-09-12 10:56:00
1:56 AM,52.2,45.7,79,30.34,12.0,ESE,3.5,-,N/A,,Clear,110,2013-09-12 11:56:00
2:56 AM,51.3,45.0,79,30.33,12.0,ESE,5.8,-,N/A,,Clear,120,2013-09-12 12:56:00
3:56 AM,53.1,46.0,77,30.32,12.0,ESE,4.6,-,N/A,,Clear,120,2013-09-12 13:56:00
4:56 AM,51.3,44.8,78,30.32,12.0,ESE,4.6,-,N/A,,Clear,120,2013-09-12 14:56:00
5:56 AM,50.2,44.4,81,30.33,8.0,ESE,4.6,-,N/A,,Clear,110,2013-09-12 15:56:00
6:56 AM,54.7,46.9,75,30.34,12.0,ESE,3.5,-,N/A,,Clear,120,2013-09-12 16:56:00
7:46 AM,64.4,50.0,59,30.36,7.0,SSE,3.5,-,N/A,,Mostly Cloudy,150,2013-09-12 17:46:00
7:56 AM,61.3,49.6,65,30.36,7.0,Calm,Calm,-,N/A,,Mostly Cloudy,0,2013-09-12 17:56:00
8:56 AM,66.2,50.2,56,30.37,12.0,SE,3.5,-,N/A,,Scattered Clouds,140,2013-09-12 18:56:00
9:56 AM,69.6,50.0,50,30.36,12.0,West,1.2,-,N/A,,Clear,280,2013-09-12 19:56:00
10:56 AM,72.5,54.5,53,30.35,12.0,South,9.2,19.6,N/A,,Mostly Cloudy,170,2013-09-12 20:56:00
11:11 AM,71.6,55.4,57,30.35,12.0,SSE,9.2,17.3,N/A,Rain,Light Rain,150,2013-09-12 21:11:00
11:33 AM,73.4,55.4,53,30.34,12.0,SE,6.9,15.0,N/A,,Mostly Cloudy,130,2013-09-12 21:33:00
11:47 AM,71.6,57.2,60,30.33,12.0,SW,6.9,11.5,N/A,,Mostly Cloudy,230,2013-09-12 21:47:00
11:56 AM,70.3,56.5,61,30.33,12.0,WSW,4.6,11.5,0.00,,Mostly Cloudy,250,2013-09-12 21:56:00
12:56 PM,67.1,57.4,71,30.31,12.0,SW,8.1,16.1,N/A,,Mostly Cloudy,230,2013-09-12 22:56:00
1:00 PM,66.2,57.2,73,30.31,12.0,SW,8.1,15.0,N/A,Rain,Light Rain,230,2013-09-12 23:00:00
1:05 PM,66.2,57.2,73,30.31,11.0,SW,8.1,-,N/A,Rain,Light Rain,230,2013-09-12 23:05:00
1:23 PM,68.0,57.2,68,30.30,9.0,SW,5.8,-,N/A,,Mostly Cloudy,220,2013-09-12 23:23:00
1:28 PM,68.0,55.4,64,30.30,12.0,SW,5.8,-,N/A,Rain,Light Rain Showers,220,2013-09-12 23:28:00
1:45 PM,69.8,57.2,64,30.29,12.0,SSW,11.5,17.3,N/A,,Mostly Cloudy,210,2013-09-12 23:45:00
1:56 PM,72.1,56.3,57,30.28,12.0,SSW,6.9,16.1,0.00,,Mostly Cloudy,210,2013-09-12 23:56:00
2:56 PM,73.0,55.8,55,30.26,9.0,SSE,13.8,20.7,N/A,,Scattered Clouds,160,2013-09-13 00:56:00
3:56 PM,70.9,54.5,56,30.25,12.0,SE,15.0,23.0,N/A,,Partly Cloudy,130,2013-09-13 01:56:00
4:55 PM,68.0,57.2,68,30.27,12.0,SSW,10.4,21.9,N/A,Rain,Light Rain,210,2013-09-13 02:55:00
4:56 PM,67.6,58.1,71,30.27,12.0,SSW,12.7,21.9,N/A,Rain,Light Rain,210,2013-09-13 02:56:00
5:21 PM,64.4,60.8,88,30.29,7.0,SSW,8.1,15.0,N/A,Rain,Light Rain Showers,210,2013-09-13 03:21:00
5:36 PM,60.8,59.0,94,30.30,7.0,SSW,6.9,-,N/A,Rain,Rain Showers,210,2013-09-13 03:36:00
5:51 PM,60.8,59.0,94,30.30,6.0,SSW,5.8,-,N/A,Rain,Light Rain Showers,210,2013-09-13 03:51:00
5:56 PM,60.6,58.5,93,30.30,7.0,SSW,5.8,-,0.05,Rain,Light Rain Showers,210,2013-09-13 03:56:00
6:08 PM,60.8,57.2,88,30.30,7.0,SW,4.6,-,N/A,,Overcast,220,2013-09-13 04:08:00
6:13 PM,60.8,57.2,88,30.30,9.0,SW,3.5,-,N/A,,Overcast,220,2013-09-13 04:13:00
6:48 PM,60.8,57.2,88,30.31,12.0,WSW,1.2,-,N/A,,Mostly Cloudy,250,2013-09-13 04:48:00
7:56 PM,59.2,56.1,90,30.32,12.0,ESE,2.3,-,N/A,,Scattered Clouds,120,2013-09-13 05:56:00
8:56 PM,56.5,54.3,92,30.33,12.0,ESE,3.5,-,N/A,,Clear,120,2013-09-13 06:56:00
9:56 PM,55.2,52.2,89,30.33,12.0,ESE,4.6,-,N/A,,Clear,120,2013-09-13 07:56:00
10:56 PM,54.0,52.0,93,30.32,12.0,ESE,4.6,-,N/A,,Clear,120,2013-09-13 08:56:00
11:56 PM,52.5,47.7,84,30.30,12.0,ESE,5.8,-,N/A,,Clear,120,2013-09-13 09:56:00